When you browse on this site, cookies collect data to enhance your experience and personalize the content and advertising you see.
Visit our Privacy Policy to learn more. By continuing to use the site, you agree to this use of cookies and data.

Stündliche Wetter 1-e Tukatovo

Heute, 8 August, Samstag

Zeit Temperatur Niederschläge Wind Luftdruck Luftfeuchtigkeit
00:00 +18°C° 0 mm 2 m/S 729 mmHg 80%
01:00 +18°C° 0 mm 2 m/S 729 mmHg 83%
02:00 +18°C° 0 mm 2 m/S 729 mmHg 84%
03:00 +18°C° 0 mm 2 m/S 729 mmHg 85%
04:00 +19°C° 0 mm 1 m/S 729 mmHg 85%
05:00 +20°C° 0.1 mm 1 m/S 729 mmHg 84%
06:00 +20°C° 0.1 mm 1 m/S 729 mmHg 83%
07:00 +21°C° 0.1 mm 1 m/S 728 mmHg 82%
08:00 +22°C° 0.1 mm 1 m/S 728 mmHg 77%
09:00 +24°C° 0.1 mm 1 m/S 728 mmHg 72%
10:00 +26°C° 0 mm 1 m/S 728 mmHg 63%
11:00 +26°C° 2.1 mm 1 m/S 728 mmHg 67%
12:00 +26°C° 2.1 mm 2 m/S 727 mmHg 71%
13:00 +26°C° 2.1 mm 2 m/S 727 mmHg 74%
14:00 +24°C° 1.6 mm 3 m/S 726 mmHg 80%
15:00 +21°C° 1.6 mm 3 m/S 726 mmHg 85%
16:00 +19°C° 1.6 mm 4 m/S 726 mmHg 91%
17:00 +19°C° 0.2 mm 4 m/S 725 mmHg 91%
18:00 +19°C° 0.2 mm 4 m/S 725 mmHg 92%
19:00 +19°C° 0.2 mm 4 m/S 725 mmHg 92%
20:00 +19°C° 0.1 mm 4 m/S 724 mmHg 93%
21:00 +18°C° 0.1 mm 4 m/S 724 mmHg 94%
22:00 +18°C° 0.1 mm 4 m/S 724 mmHg 96%
23:00 +17°C° 0.1 mm 4 m/S 724 mmHg 96%

Morgen, 9 August, Sonntag

Zeit Temperatur Niederschläge Wind Luftdruck Luftfeuchtigkeit
00:00 +17°C° 0.1 mm 4 m/S 723 mmHg 96%
01:00 +17°C° 0.1 mm 4 m/S 723 mmHg 96%
02:00 +17°C° 0.3 mm 3 m/S 723 mmHg 96%
03:00 +17°C° 0.3 mm 3 m/S 722 mmHg 96%
04:00 +17°C° 0.3 mm 3 m/S 722 mmHg 96%
05:00 +17°C° 0.3 mm 2 m/S 722 mmHg 96%
06:00 +17°C° 0.3 mm 2 m/S 722 mmHg 96%
07:00 +17°C° 0.3 mm 2 m/S 721 mmHg 96%
08:00 +17°C° 0.5 mm 2 m/S 721 mmHg 96%
09:00 +17°C° 0.5 mm 3 m/S 721 mmHg 96%
10:00 +17°C° 0.5 mm 3 m/S 721 mmHg 96%
11:00 +17°C° 0.1 mm 4 m/S 721 mmHg 92%
12:00 +18°C° 0.1 mm 4 m/S 721 mmHg 89%
13:00 +17°C° 0.1 mm 5 m/S 721 mmHg 86%
14:00 +16°C° 0 mm 5 m/S 721 mmHg 85%
15:00 +16°C° 0 mm 5 m/S 721 mmHg 85%
16:00 +15°C° 0 mm 5 m/S 721 mmHg 84%
17:00 +15°C° 0 mm 4 m/S 721 mmHg 86%
18:00 +14°C° 0 mm 4 m/S 720 mmHg 88%
19:00 +14°C° 0 mm 3 m/S 720 mmHg 89%
20:00 +15°C° 0 mm 2 m/S 720 mmHg 91%
21:00 +15°C° 0 mm 2 m/S 720 mmHg 92%
22:00 +15°C° 0 mm 1 m/S 719 mmHg 94%
23:00 +15°C° 0.1 mm 1 m/S 719 mmHg 95%

übermorgen, 10 August, Montag

Zeit Temperatur Niederschläge Wind Luftdruck Luftfeuchtigkeit
00:00 +14°C° 0.1 mm 1 m/S 719 mmHg 96%
01:00 +14°C° 0.1 mm 1 m/S 719 mmHg 97%
02:00 +15°C° 1.4 mm 2 m/S 719 mmHg 97%
03:00 +14°C° 1.4 mm 4 m/S 719 mmHg 97%
04:00 +14°C° 1.4 mm 5 m/S 719 mmHg 97%
05:00 +14°C° 0.5 mm 6 m/S 719 mmHg 96%
06:00 +14°C° 0.5 mm 6 m/S 719 mmHg 95%
07:00 +14°C° 0.5 mm 7 m/S 719 mmHg 94%
08:00 +13°C° 0 mm 8 m/S 719 mmHg 92%
09:00 +13°C° 0 mm 8 m/S 720 mmHg 90%
10:00 +15°C° 0 mm 8 m/S 720 mmHg 88%
11:00 +15°C° 0 mm 8 m/S 721 mmHg 87%
12:00 +13°C° 0 mm 8 m/S 721 mmHg 86%
13:00 +13°C° 0 mm 8 m/S 721 mmHg 86%
14:00 +13°C° 0 mm 8 m/S 722 mmHg 86%
15:00 +13°C° 0 mm 8 m/S 722 mmHg 87%
16:00 +13°C° 0 mm 8 m/S 723 mmHg 87%
17:00 +12°C° 0 mm 8 m/S 723 mmHg 88%
18:00 +12°C° 0 mm 7 m/S 723 mmHg 89%
19:00 +12°C° 0 mm 7 m/S 724 mmHg 90%
20:00 +12°C° 0 mm 7 m/S 724 mmHg 90%
21:00 +12°C° 0 mm 7 m/S 724 mmHg 90%
22:00 +13°C° 0 mm 6 m/S 724 mmHg 90%
23:00 +13°C° 0 mm 6 m/S 724 mmHg 90%

11 August, Dienstag

Zeit Temperatur Niederschläge Wind Luftdruck Luftfeuchtigkeit
00:00 +13°C° 0 mm 6 m/S 724 mmHg 90%
01:00 +13°C° 0 mm 6 m/S 724 mmHg 90%
02:00 +13°C° 0 mm 6 m/S 725 mmHg 90%
03:00 +13°C° 0 mm 6 m/S 725 mmHg 89%
04:00 +13°C° 0 mm 6 m/S 725 mmHg 88%
05:00 +13°C° 0 mm 6 m/S 725 mmHg 88%
06:00 +13°C° 0 mm 6 m/S 726 mmHg 87%
07:00 +13°C° 0 mm 6 m/S 726 mmHg 86%
08:00 +13°C° 0 mm 6 m/S 726 mmHg 84%
09:00 +14°C° 0 mm 6 m/S 726 mmHg 81%
10:00 +14°C° 0 mm 6 m/S 727 mmHg 78%
11:00 +15°C° 0 mm 6 m/S 727 mmHg 75%
12:00 +16°C° 0 mm 6 m/S 727 mmHg 72%
13:00 +17°C° 0 mm 6 m/S 727 mmHg 70%
14:00 +17°C° 0 mm 6 m/S 728 mmHg 67%
15:00 +19°C° 0 mm 6 m/S 728 mmHg 64%
16:00 +20°C° 0 mm 7 m/S 728 mmHg 62%
17:00 +17°C° 0 mm 6 m/S 728 mmHg 66%
18:00 +16°C° 0 mm 5 m/S 728 mmHg 71%
19:00 +15°C° 0 mm 4 m/S 729 mmHg 76%
20:00 +14°C° 0 mm 4 m/S 729 mmHg 81%
21:00 +12°C° 0 mm 3 m/S 729 mmHg 86%
22:00 +12°C° 0 mm 2 m/S 729 mmHg 91%
23:00 +10°C° 0 mm 2 m/S 729 mmHg 92%

12 August, Mittwoch

Zeit Temperatur Niederschläge Wind Luftdruck Luftfeuchtigkeit
00:00 +10°C° 0 mm 2 m/S 729 mmHg 93%
01:00 +10°C° 0 mm 1 m/S 730 mmHg 93%
02:00 +10°C° 0 mm 1 m/S 730 mmHg 94%
03:00 +10°C° 0 mm 1 m/S 730 mmHg 94%
04:00 +9°C° 0 mm 1 m/S 730 mmHg 94%
05:00 +10°C° 0 mm 1 m/S 730 mmHg 91%
06:00 +12°C° 0 mm 2 m/S 730 mmHg 88%
07:00 +13°C° 0 mm 2 m/S 730 mmHg 84%
08:00 +13°C° 0 mm 3 m/S 730 mmHg 76%
09:00 +16°C° 0 mm 3 m/S 730 mmHg 68%
10:00 +18°C° 0 mm 4 m/S 730 mmHg 60%
11:00 +19°C° 0 mm 4 m/S 731 mmHg 58%
12:00 +20°C° 0 mm 4 m/S 731 mmHg 56%
13:00 +21°C° 0 mm 5 m/S 731 mmHg 54%
14:00 +21°C° 0 mm 5 m/S 731 mmHg 55%
15:00 +21°C° 0 mm 5 m/S 731 mmHg 55%
16:00 +21°C° 0 mm 5 m/S 731 mmHg 56%
17:00 +19°C° 0 mm 4 m/S 731 mmHg 62%
18:00 +18°C° 0 mm 3 m/S 731 mmHg 69%
19:00 +17°C° 0 mm 3 m/S 731 mmHg 75%
20:00 +15°C° 0 mm 2 m/S 731 mmHg 80%
21:00 +14°C° 0 mm 2 m/S 731 mmHg 85%
22:00 +12°C° 0 mm 1 m/S 731 mmHg 89%
23:00 +12°C° 0 mm 1 m/S 731 mmHg 89%

13 August, Donnerstag

Zeit Temperatur Niederschläge Wind Luftdruck Luftfeuchtigkeit
00:00 +11°C° 0 mm 1 m/S 731 mmHg 90%
01:00 +10°C° 0 mm 0 m/S 731 mmHg 90%
02:00 +10°C° 0 mm 0 m/S 731 mmHg 90%
03:00 +10°C° 0 mm 0 m/S 731 mmHg 91%
04:00 +9°C° 0 mm 0 m/S 731 mmHg 91%
05:00 +11°C° 0 mm 0 m/S 731 mmHg 88%
06:00 +12°C° 0 mm 0 m/S 731 mmHg 85%
07:00 +13°C° 0 mm 0 m/S 731 mmHg 82%
08:00 +16°C° 0 mm 1 m/S 731 mmHg 75%
09:00 +19°C° 0 mm 1 m/S 731 mmHg 68%
10:00 +20°C° 0 mm 2 m/S 731 mmHg 60%
11:00 +21°C° 0 mm 2 m/S 731 mmHg 57%
12:00 +21°C° 0 mm 2 m/S 731 mmHg 54%
13:00 +23°C° 0 mm 2 m/S 731 mmHg 51%
14:00 +24°C° 0 mm 2 m/S 731 mmHg 51%
15:00 +24°C° 0 mm 2 m/S 731 mmHg 50%
16:00 +24°C° 0 mm 1 m/S 730 mmHg 49%
17:00 +23°C° 0 mm 1 m/S 730 mmHg 56%
18:00 +21°C° 0 mm 1 m/S 730 mmHg 62%
19:00 +18°C° 0 mm 0 m/S 730 mmHg 68%
20:00 +19°C° 0 mm 1 m/S 730 mmHg 71%
21:00 +16°C° 0 mm 1 m/S 730 mmHg 73%
22:00 +15°C° 0 mm 1 m/S 730 mmHg 75%
23:00 +15°C° 0 mm 1 m/S 729 mmHg 75%
Mehr zeigen